Location: Presov
(49.0000°N, 21.2500°E)
Time: 11:24:58
(UTC+02:00)

Transit 2A Rocket - Visible Passes

Search period start: 19 April 2021 00:00
Search period end: 29 April 2021 00:00
Orbit: 594 x 908 km, 66.7° (Epoch: 18 April)

Date Brightness Start Highest point End Pass type
(mag) Time Alt. Az. Time Alt. Az. Time Alt. Az.
19 Apr 6.0 00:35:38 10° NW 00:38:11 34° NW 00:38:11 34° NW visible
19 Apr 7.1 22:11:36 10° N 22:13:58 14° NNE 22:16:24 10° ENE visible
19 Apr 5.6 23:53:05 10° NNW 23:56:31 45° N 23:56:31 45° N visible
20 Apr 7.2 01:36:10 10° WNW 01:36:23 11° WNW 01:36:23 11° WNW visible
20 Apr 7.2 21:29:43 10° N 21:30:52 11° NNE 21:32:02 10° NE visible
20 Apr 5.8 23:10:38 10° NNW 23:14:42 35° NE 23:14:51 35° NE visible
21 Apr 6.6 00:53:06 10° NW 00:54:44 21° WNW 00:54:44 21° WNW visible
21 Apr 6.3 22:28:15 10° NNW 22:31:51 24° NE 22:33:14 21° ENE visible
22 Apr 5.8 00:10:18 10° NW 00:13:07 38° NW 00:13:07 38° NW visible
22 Apr 6.8 21:45:57 10° N 21:48:54 17° NNE 21:51:37 11° ENE visible
22 Apr 5.0 23:27:40 10° NNW 23:31:30 63° N 23:31:30 63° N visible
23 Apr 7.3 01:11:22 10° WNW 01:11:23 10° WNW 01:11:23 10° WNW visible
23 Apr 7.0 21:03:49 10° N 21:05:51 13° NNE 21:07:57 10° NE visible
23 Apr 5.2 22:45:09 10° NNW 22:49:27 47° NE 22:49:55 45° ENE visible
24 Apr 6.6 00:27:58 10° WNW 00:29:49 20° WNW 00:29:49 20° WNW visible
24 Apr 7.3 20:22:26 10° NNE 20:22:43 10° NNE 20:23:00 10° NNE visible
24 Apr 5.9 22:02:43 10° NNW 22:06:41 30° NE 22:08:22 24° E visible
24 Apr 5.7 23:45:02 10° NW 23:48:15 38° W 23:48:15 38° W visible
25 Apr 6.5 21:20:22 10° NNW 21:23:48 21° NE 21:26:50 12° E visible
25 Apr 4.6 23:02:18 10° NW 23:06:43 78° WSW 23:06:43 78° WSW visible
26 Apr 6.8 20:38:07 10° N 20:40:48 16° NNE 20:43:34 10° ENE visible
26 Apr 4.8 22:19:43 10° NNW 22:24:10 64° NE 22:25:13 48° ESE visible
27 Apr 6.7 00:03:01 10° WNW 00:05:07 18° W 00:05:07 18° W visible
27 Apr 5.5 21:37:13 10° NNW 21:41:27 40° NE 21:43:45 24° E visible
27 Apr 5.8 23:19:50 10° NW 23:23:38 33° WSW 23:23:38 33° WSW visible
28 Apr 6.1 20:54:49 10° NNW 20:58:38 27° NE 21:02:18 12° E visible
28 Apr 5.0 22:36:59 10° NW 22:41:25 56° WSW 22:42:12 49° SSW visible
